Time,TemperatureF,DewpointF,PressureIn,WindDirection,WindDirectionDegrees,WindSpeedMPH,WindSpeedGustMPH,Humidity,HourlyPrecipIn,Conditions,Clouds,dailyrainin,SoftwareType,DateUTC
2013-01-29 00:02:00,33.0,32.0,-100.00,South,175,7.0,9.0,99,0.00,,,0.00,,2013-01-29 00:02:00,
2013-01-29 00:12:00,33.0,32.0,-100.00,SSE,165,6.0,9.0,99,0.00,,,0.00,,2013-01-29 00:12:00,
2013-01-29 00:22:00,33.0,32.0,-100.00,SSE,165,6.0,9.0,99,0.00,,,0.00,,2013-01-29 00:22:00,
2013-01-29 00:32:00,33.0,32.0,-100.00,South,175,9.0,10.0,99,0.00,,,0.00,,2013-01-29 00:32:00,
2013-01-29 00:42:00,33.0,32.0,-100.00,SSE,165,7.0,10.0,99,0.00,,,0.00,,2013-01-29 00:42:00,
2013-01-29 00:52:00,32.0,32.0,-100.00,SSE,150,6.0,9.0,99,0.00,,,0.00,,2013-01-29 00:52:00,
2013-01-29 01:02:00,32.0,32.0,-100.00,SE,130,4.0,9.0,99,0.00,,,0.00,,2013-01-29 01:02:00,
2013-01-29 01:11:00,32.0,32.0,-100.00,SE,135,4.0,7.0,99,0.00,,,0.00,,2013-01-29 01:11:00,
2013-01-29 01:22:00,32.0,32.0,-100.00,SSE,150,3.0,10.0,99,0.00,,,0.00,,2013-01-29 01:22:00,
2013-01-29 01:32:00,32.0,32.0,-100.00,SE,130,5.0,7.0,99,0.00,,,0.00,,2013-01-29 01:32:00,
2013-01-29 01:42:00,32.0,32.0,-100.00,ESE,120,4.0,6.0,99,0.00,,,0.00,,2013-01-29 01:42:00,
2013-01-29 01:52:00,33.0,32.0,-100.00,SE,130,4.0,6.0,99,0.00,,,0.00,,2013-01-29 01:52:00,
2013-01-29 02:02:00,33.0,32.0,-100.00,SE,140,4.0,6.0,99,0.00,,,0.00,,2013-01-29 02:02:00,
2013-01-29 02:12:00,32.0,32.0,-100.00,South,180,6.0,9.0,99,0.00,,,0.00,,2013-01-29 02:12:00,
2013-01-29 02:21:00,32.0,32.0,-100.00,SSW,195,6.0,7.0,99,0.00,,,0.00,,2013-01-29 02:21:00,
2013-01-29 02:32:00,32.0,32.0,-100.00,South,180,5.0,6.0,99,0.00,,,0.00,,2013-01-29 02:32:00,
2013-01-29 02:41:00,33.0,32.0,-100.00,SE,140,3.0,6.0,99,0.00,,,0.00,,2013-01-29 02:41:00,
2013-01-29 02:52:00,33.0,32.0,-100.00,SE,135,6.0,10.0,99,0.00,,,0.00,,2013-01-29 02:52:00,
2013-01-29 03:03:00,33.0,32.0,-100.00,SSE,165,5.0,9.0,99,0.00,,,0.00,,2013-01-29 03:03:00,
2013-01-29 03:11:00,33.0,32.0,-100.00,SSE,160,7.0,11.0,99,0.00,,,0.00,,2013-01-29 03:11:00,
2013-01-29 03:21:00,32.0,32.0,-100.00,SSE,165,9.0,11.0,99,0.00,,,0.00,,2013-01-29 03:21:00,
2013-01-29 03:32:00,32.0,32.0,-100.00,SSE,160,4.0,10.0,99,0.00,,,0.00,,2013-01-29 03:32:00,
2013-01-29 03:42:00,32.0,32.0,-100.00,SE,125,3.0,6.0,99,0.00,,,0.00,,2013-01-29 03:42:00,
2013-01-29 03:52:00,32.0,32.0,-100.00,ESE,105,4.0,5.0,99,0.00,,,0.00,,2013-01-29 03:52:00,
2013-01-29 04:02:00,32.0,32.0,-100.00,SSE,165,3.0,4.0,99,0.00,,,0.00,,2013-01-29 04:02:00,
2013-01-29 04:11:00,32.0,32.0,-100.00,South,170,2.0,4.0,99,0.00,,,0.00,,2013-01-29 04:11:00,
2013-01-29 04:21:00,32.0,32.0,-100.00,South,185,2.0,3.0,99,0.00,,,0.00,,2013-01-29 04:21:00,
2013-01-29 04:32:00,32.0,32.0,-100.00,South,170,2.0,3.0,99,0.00,,,0.00,,2013-01-29 04:32:00,
2013-01-29 04:41:00,32.0,32.0,-100.00,South,170,0.0,3.0,99,0.00,,,0.00,,2013-01-29 04:41:00,
2013-01-29 04:51:00,32.0,32.0,-100.00,North,355,0.0,1.0,99,0.00,,,0.00,,2013-01-29 04:51:00,
2013-01-29 05:03:00,32.0,32.0,-100.00,WNW,290,1.0,2.0,99,0.00,,,0.00,,2013-01-29 05:03:00,
2013-01-29 05:12:00,32.0,32.0,-100.00,West,265,1.0,2.0,99,0.00,,,0.00,,2013-01-29 05:12:00,
2013-01-29 05:21:00,32.0,32.0,-100.00,SW,230,0.0,1.0,99,0.00,,,0.00,,2013-01-29 05:21:00,
2013-01-29 05:32:00,32.0,32.0,-100.00,NW,305,1.0,3.0,99,0.00,,,0.00,,2013-01-29 05:32:00,
2013-01-29 05:42:00,32.0,32.0,-100.00,WNW,295,1.0,2.0,99,0.00,,,0.00,,2013-01-29 05:42:00,
2013-01-29 05:52:00,32.0,32.0,-100.00,NNW,335,1.0,2.0,99,0.00,,,0.00,,2013-01-29 05:52:00,
2013-01-29 06:01:00,32.0,32.0,-100.00,NNW,345,2.0,2.0,99,0.00,,,0.00,,2013-01-29 06:01:00,
2013-01-29 06:11:00,32.0,32.0,-100.00,North,0,1.0,2.0,99,0.00,,,0.00,,2013-01-29 06:11:00,
2013-01-29 06:21:00,32.0,32.0,-100.00,North,10,1.0,2.0,99,0.00,,,0.00,,2013-01-29 06:21:00,
2013-01-29 06:31:00,32.0,32.0,-100.00,ESE,115,1.0,2.0,99,0.00,,,0.00,,2013-01-29 06:31:00,
2013-01-29 06:41:00,32.0,32.0,-100.00,East,100,2.0,3.0,99,0.00,,,0.00,,2013-01-29 06:41:00,
2013-01-29 06:52:00,32.0,32.0,-100.00,East,95,2.0,3.0,99,0.00,,,0.00,,2013-01-29 06:52:00,
2013-01-29 07:01:00,32.0,32.0,-100.00,East,90,1.0,2.0,99,0.00,,,0.00,,2013-01-29 07:01:00,
2013-01-29 07:11:00,32.0,32.0,-100.00,NE,50,1.0,2.0,99,0.00,,,0.00,,2013-01-29 07:11:00,
2013-01-29 07:21:00,32.0,32.0,-100.00,NE,50,4.0,4.0,99,0.00,,,0.00,,2013-01-29 07:21:00,
2013-01-29 09:01:00,32.0,32.0,-100.00,North,350,4.0,4.0,99,0.00,,,0.00,,2013-01-29 09:01:00,
2013-01-29 09:31:00,32.0,32.0,-100.00,NW,325,3.0,5.0,99,0.00,,,0.00,,2013-01-29 09:31:00,
2013-01-29 09:42:00,32.0,32.0,-100.00,North,350,2.0,4.0,99,0.00,,,0.00,,2013-01-29 09:42:00,
2013-01-29 09:51:00,32.0,32.0,-100.00,NW,320,3.0,4.0,99,0.00,,,0.00,,2013-01-29 09:51:00,
2013-01-29 10:01:00,32.0,32.0,-100.00,NNW,330,3.0,4.0,99,0.00,,,0.00,,2013-01-29 10:01:00,
2013-01-29 10:11:00,32.0,32.0,-100.00,NW,305,2.0,3.0,99,0.00,,,0.00,,2013-01-29 10:11:00,
2013-01-29 10:21:00,32.0,32.0,-100.00,NNW,330,2.0,3.0,99,0.00,,,0.00,,2013-01-29 10:21:00,
2013-01-29 10:32:00,32.0,32.0,-100.00,North,350,3.0,4.0,99,0.00,,,0.00,,2013-01-29 10:32:00,
2013-01-29 10:41:00,32.0,32.0,-100.00,NW,320,4.0,6.0,99,0.00,,,0.00,,2013-01-29 10:41:00,
2013-01-29 10:51:00,32.0,32.0,-100.00,NNW,345,6.0,8.0,99,0.00,,,0.00,,2013-01-29 10:51:00,
2013-01-29 11:01:00,32.0,32.0,-100.00,NNW,330,4.0,9.0,99,0.00,,,0.00,,2013-01-29 11:01:00,
2013-01-29 11:11:00,32.0,32.0,-100.00,NW,325,4.0,7.0,99,0.00,,,0.00,,2013-01-29 11:11:00,
2013-01-29 11:21:00,32.0,32.0,-100.00,NW,315,7.0,10.0,99,0.00,,,0.00,,2013-01-29 11:21:00,
2013-01-29 11:32:00,32.0,32.0,-100.00,North,0,8.0,11.0,99,0.00,,,0.00,,2013-01-29 11:32:00,
2013-01-29 12:42:00,31.0,30.0,-100.00,North,350,13.0,17.0,99,0.00,,,0.00,,2013-01-29 12:42:00,
2013-01-29 12:52:00,31.0,30.0,-100.00,North,350,12.0,15.0,99,0.00,,,0.00,,2013-01-29 12:52:00,
2013-01-29 13:02:00,31.0,30.0,-100.00,North,0,14.0,17.0,99,0.00,,,0.00,,2013-01-29 13:02:00,
2013-01-29 13:11:00,31.0,30.0,-100.00,North,350,14.0,18.0,99,0.00,,,0.00,,2013-01-29 13:11:00,
2013-01-29 13:22:00,30.0,30.0,-100.00,NNW,340,16.0,19.0,99,0.00,,,0.00,,2013-01-29 13:22:00,
2013-01-29 13:32:00,30.0,30.0,-100.00,NW,320,12.0,17.0,99,0.00,,,0.00,,2013-01-29 13:32:00,
2013-01-29 13:42:00,30.0,30.0,-100.00,North,350,12.0,17.0,99,0.00,,,0.00,,2013-01-29 13:42:00,
2013-01-29 14:12:00,29.0,28.0,-100.00,NNW,330,11.0,16.0,99,0.00,,,0.00,,2013-01-29 14:12:00,
2013-01-29 14:21:00,29.0,28.0,-100.00,NW,325,10.0,15.0,99,0.00,,,0.00,,2013-01-29 14:21:00,
2013-01-29 14:32:00,29.0,28.0,-100.00,NW,325,12.0,14.0,98,0.00,,,0.00,,2013-01-29 14:32:00,
2013-01-29 14:43:00,29.0,28.0,-100.00,NNW,330,9.0,14.0,98,0.00,,,0.00,,2013-01-29 14:43:00,
2013-01-29 14:52:00,29.0,28.0,-100.00,NNW,335,10.0,13.0,97,0.00,,,0.00,,2013-01-29 14:52:00,
2013-01-29 15:02:00,29.0,28.0,-100.00,NNW,340,11.0,14.0,96,0.00,,,0.00,,2013-01-29 15:02:00,
2013-01-29 15:12:00,29.0,28.0,-100.00,North,350,11.0,14.0,96,0.00,,,0.00,,2013-01-29 15:12:00,
2013-01-29 15:22:00,29.0,28.0,-100.00,NNW,335,10.0,19.0,95,0.00,,,0.00,,2013-01-29 15:22:00,
2013-01-29 15:33:00,29.0,27.0,-100.00,NNW,335,11.0,14.0,95,0.00,,,0.00,,2013-01-29 15:33:00,
2013-01-29 15:42:00,29.0,27.0,-100.00,NNW,340,9.0,15.0,95,0.00,,,0.00,,2013-01-29 15:42:00,
2013-01-29 15:52:00,28.0,27.0,-100.00,NNW,335,12.0,19.0,95,0.00,,,0.00,,2013-01-29 15:52:00,
2013-01-29 16:02:00,29.0,27.0,-100.00,NNW,335,9.0,16.0,95,0.00,,,0.00,,2013-01-29 16:02:00,
2013-01-29 16:12:00,29.0,27.0,-100.00,NNW,340,9.0,15.0,94,0.00,,,0.00,,2013-01-29 16:12:00,
2013-01-29 16:22:00,29.0,28.0,-100.00,NW,315,11.0,16.0,94,0.00,,,0.00,,2013-01-29 16:22:00,
2013-01-29 16:32:00,29.0,27.0,-100.00,NW,315,12.0,16.0,93,0.00,,,0.00,,2013-01-29 16:32:00,
2013-01-29 16:42:00,29.0,27.0,-100.00,NNW,330,11.0,17.0,93,0.00,,,0.00,,2013-01-29 16:42:00,
2013-01-29 16:52:00,29.0,27.0,-100.00,NNW,345,13.0,17.0,92,0.00,,,0.00,,2013-01-29 16:52:00,
2013-01-29 17:03:00,29.0,27.0,-100.00,NNW,345,12.0,16.0,91,0.00,,,0.00,,2013-01-29 17:03:00,
2013-01-29 17:12:00,29.0,27.0,-100.00,NW,325,12.0,18.0,91,0.00,,,0.00,,2013-01-29 17:12:00,
2013-01-29 17:22:00,30.0,27.0,-100.00,NW,325,11.0,14.0,90,0.00,,,0.00,,2013-01-29 17:22:00,
2013-01-29 17:32:00,30.0,27.0,-100.00,NW,325,11.0,17.0,89,0.00,,,0.00,,2013-01-29 17:32:00,
2013-01-29 17:42:00,30.0,27.0,-100.00,NNW,340,15.0,17.0,88,0.00,,,0.00,,2013-01-29 17:42:00,
2013-01-29 17:52:00,29.0,27.0,-100.00,NNW,340,12.0,18.0,88,0.00,,,0.00,,2013-01-29 17:52:00,
2013-01-29 18:03:00,29.0,27.0,-100.00,NNW,330,12.0,18.0,87,0.00,,,0.00,,2013-01-29 18:03:00,
2013-01-29 18:12:00,30.0,27.0,-100.00,North,350,10.0,14.0,86,0.00,,,0.00,,2013-01-29 18:12:00,
2013-01-29 18:22:00,30.0,27.0,-100.00,NW,320,9.0,16.0,85,0.00,,,0.00,,2013-01-29 18:22:00,
2013-01-29 18:33:00,29.0,25.0,-100.00,NNW,340,13.0,17.0,85,0.00,,,0.00,,2013-01-29 18:33:00,
2013-01-29 18:42:00,30.0,25.0,-100.00,NNW,345,12.0,15.0,85,0.00,,,0.00,,2013-01-29 18:42:00,
2013-01-29 18:51:00,29.0,25.0,-100.00,NNW,345,11.0,14.0,84,0.00,,,0.00,,2013-01-29 18:51:00,
2013-01-29 19:02:00,30.0,25.0,-100.00,NW,325,12.0,15.0,83,0.00,,,0.00,,2013-01-29 19:02:00,
2013-01-29 19:12:00,30.0,25.0,-100.00,NNW,335,12.0,17.0,83,0.00,,,0.00,,2013-01-29 19:12:00,
2013-01-29 19:22:00,30.0,25.0,-100.00,NNW,330,11.0,16.0,83,0.00,,,0.00,,2013-01-29 19:22:00,
2013-01-29 19:32:00,29.0,25.0,-100.00,NW,325,13.0,20.0,83,0.00,,,0.00,,2013-01-29 19:32:00,
2013-01-29 19:42:00,28.0,25.0,-100.00,NW,325,12.0,19.0,83,0.00,,,0.00,,2013-01-29 19:42:00,
2013-01-29 19:52:00,28.0,23.0,-100.00,NNW,340,14.0,17.0,83,0.00,,,0.00,,2013-01-29 19:52:00,
2013-01-29 20:02:00,28.0,25.0,-100.00,NNW,340,11.0,17.0,84,0.00,,,0.00,,2013-01-29 20:02:00,
2013-01-29 20:12:00,28.0,25.0,-100.00,NNW,340,12.0,15.0,84,0.00,,,0.00,,2013-01-29 20:12:00,
2013-01-29 20:22:00,28.0,25.0,-100.00,North,350,11.0,15.0,84,0.00,,,0.00,,2013-01-29 20:22:00,
2013-01-29 20:33:00,28.0,23.0,-100.00,NNW,340,16.0,18.0,84,0.00,,,0.00,,2013-01-29 20:33:00,
2013-01-29 20:42:00,28.0,25.0,-100.00,North,350,11.0,18.0,84,0.00,,,0.00,,2013-01-29 20:42:00,
2013-01-29 20:53:00,28.0,25.0,-100.00,NNW,345,11.0,14.0,84,0.00,,,0.00,,2013-01-29 20:53:00,
2013-01-29 21:03:00,28.0,25.0,-100.00,North,0,11.0,16.0,84,0.00,,,0.00,,2013-01-29 21:03:00,
2013-01-29 21:12:00,28.0,23.0,-100.00,North,0,12.0,17.0,84,0.00,,,0.00,,2013-01-29 21:12:00,
2013-01-29 21:22:00,28.0,23.0,-100.00,North,0,12.0,19.0,83,0.00,,,0.00,,2013-01-29 21:22:00,
2013-01-29 21:33:00,28.0,23.0,-100.00,NNW,340,10.0,16.0,83,0.00,,,0.00,,2013-01-29 21:33:00,
2013-01-29 21:42:00,28.0,23.0,-100.00,North,355,11.0,18.0,83,0.00,,,0.00,,2013-01-29 21:42:00,
2013-01-29 21:52:00,28.0,23.0,-100.00,NNW,330,9.0,16.0,83,0.00,,,0.00,,2013-01-29 21:52:00,
2013-01-29 22:02:00,28.0,23.0,-100.00,NNW,340,9.0,14.0,84,0.00,,,0.00,,2013-01-29 22:02:00,
2013-01-29 22:12:00,28.0,23.0,-100.00,North,0,9.0,13.0,85,0.00,,,0.00,,2013-01-29 22:12:00,
2013-01-29 22:22:00,27.0,23.0,-100.00,North,0,10.0,16.0,84,0.00,,,0.00,,2013-01-29 22:22:00,
2013-01-29 22:33:00,27.0,23.0,-100.00,NNW,345,11.0,16.0,84,0.00,,,0.00,,2013-01-29 22:33:00,
2013-01-29 22:42:00,27.0,23.0,-100.00,NNW,340,11.0,16.0,84,0.00,,,0.00,,2013-01-29 22:42:00,
2013-01-29 22:52:00,27.0,23.0,-100.00,NNW,345,12.0,19.0,84,0.00,,,0.00,,2013-01-29 22:52:00,
2013-01-29 23:02:00,27.0,23.0,-100.00,NNW,345,12.0,19.0,85,0.00,,,0.00,,2013-01-29 23:02:00,
2013-01-29 23:12:00,27.0,23.0,-100.00,North,350,14.0,21.0,85,0.00,,,0.00,,2013-01-29 23:12:00,
2013-01-29 23:22:00,26.0,23.0,-100.00,North,0,18.0,24.0,85,0.00,,,0.00,,2013-01-29 23:22:00,
2013-01-29 23:32:00,26.0,23.0,-100.00,North,355,17.0,22.0,85,0.00,,,0.00,,2013-01-29 23:32:00,
2013-01-29 23:42:00,26.0,23.0,-100.00,North,0,16.0,22.0,85,0.00,,,0.00,,2013-01-29 23:42:00,
2013-01-29 23:52:00,26.0,23.0,-100.00,North,350,17.0,24.0,85,0.00,,,0.00,,2013-01-29 23:52:00,